Temp
48 48 48 49 49 49 49 49 49 50 50 50 50 49 49 49 51 51 52 56 55 54 69 73 75 69 69 67 56 61 59 61 58 49 48 52 46 53 53 58 48 45 43 39 44 35 35 66 63 51 59 64 64 64
48 48 48 48 49 49 49 49 49 49 50 50 50 49 50 51 52 53 49 58 60 59 64 69 69 71 73 75 65 63 65 63 62 58 53 54 41 40 49 45 64 49 55 50 51 48 63 67 64 68 67 64 64 64
48 48 48 48 48 49 49 49 49 49 49 49 49 50 51 51 51 52 52 55 61 62 63 67 64 68 72 71 73 63 67 72 68 71 58 54 40 50 40 49 56 62 64 54 54 63 65 67 69 69 68 64 66 66
48 48 48 48 47 47 47 48 48 48 49 50 50 50 50 51 51 52 52 56 64 64 47 57 70 66 71 73 73 72 73 71 69 67 56 43 43 60 49 56 54 60 62 57 56 62 65 66 64 63 63 64 63 63
47 46 46 47 46 47 47 48 48 48 49 49 50 50 51 51 52 53 55 60 69 68 51 54 64 67 70 71 70 71 70 67 64 55 43 51 57 53 52 54 52 63 59 51 49 59 58 58 59 61 58 57 58 57
46 46 46 46 47 47 48 48 48 48 49 49 49 50 51 51 51 54 53 68 68 75 58 49 61 63 68 70 69 68 69 68 67 60 52 60 62 58 44 48 61 60 62 60 58 60 60 58 58 57 53 53 53 51
47 47 47 47 47 47 47 47 48 48 49 49 49 50 51 51 57 56 56 56 53 68 58 46 47 59 67 65 64 64 68 67 67 60 52 55 56 58 43 47 57 57 58 60 59 59 54 57 52 54 50 49 47 47
47 48 48 47 47 47 47 47 48 48 49 49 49 50 51 50 52 56 60 54 53 65 59 45 40 48 62 53 51 60 58 61 57 53 54 52 52 52 47 54 55 55 57 55 56 58 56 54 51 48 49 48 45 44
47 47 47 48 48 47 47 48 48 48 49 50 50 51 56 60 57 58 51 51 63 57 45 47 40 40 58 49 50 52 58 45 55 44 51 53 43 43 51 52 52 51 53 52 55 54 50 47 46 46 46 45 43 42
47 47 47 48 49 49 49 49 49 49 51 51 57 63 48 53 50 51 59 58 54 50 53 42 48 42 51 44 41 45 46 43 40 44 51 44 43 48 50 51 51 53 54 54 45 41 42 42 43 44 45 44 43 42
47 47 48 48 48 48 49 50 51 52 52 61 54 47 54 51 57 53 45 47 48 41 47 45 45 44 51 44 40 44 41 42 38 42 42 40 39 43 48 47 49 52 52 51 49 47 47 46 44 42 41 40 38 37
47 47 47 48 49 49 49 49 50 57 57 56 55 55 53 52 46 39 39 42 42 39 39 40 43 47 45 53 44 43 37 40 36 44 37 36 40 43 43 43 47 49 49 48 48 45 45 45 43 40 38 35 33 33
46 46 46 46 47 49 49 48 49 51 51 58 51 42 45 40 36 36 33 36 35 37 37 39 37 43 45 49 41 41 36 37 45 36 37 38 40 40 42 45 45 47 46 45 45 44 42 39 38 35 33 32 34 36
45 46 46 46 46 47 48 49 50 54 56 46 39 34 34 34 33 33 33 34 34 34 37 40 38 40 39 37 38 35 35 40 33 32 35 35 37 38 42 43 44 43 39 40 40 37 34 32 31 32 32 31 30 30
47 46 47 46 47 47 48 49 50 51 45 38 37 31 31 32 33 33 33 34 35 38 38 42 42 43 37 34 37 35 33 32 35 35 34 35 36 38 40 42 40 37 35 38 37 34 32 33 32 32 31 32 32 29
49 49 46 45 47 48 49 48 48 46 40 35 34 32 33 33 32 32 33 33 36 36 40 42 37 35 33 36 35 33 35 33 33 33 34 35 35 36 40 40 40 41 40 38 36 35 33 33 33 33 32 31 29 29
51 48 43 45 47 49 49 47 44 40 36 34 32 32 33 32 32 32 33 34 37 36 33 36 33 31 36 34 32 33 31 32 32 33 34 35 35 36 40 38 38 39 39 38 37 36 35 34 33 33 33 34 34 32
48 51 45 46 51 51 51 46 40 39 32 34 32 32 33 33 33 33 35 38 37 35 35 33 35 33 32 31 31 33 33 33 35 36 35 35 36 37 41 40 41 40 38 36 36 35 34 33 36 35 34 34 34 33
45 47 45 47 52 49 42 42 45 33 33 34 34 35 35 35 38 37 36 40 44 43 38 36 32 30 30 31 30 32 33 34 33 33 35 35 36 36 37 38 36 36 36 36 37 36 34 34 33 33 31 31 29 30
47 45 45 48 51 44 38 39 47 38 33 34 36 35 37 36 37 35 35 40 42 41 34 31 29 30 30 30 31 32 33 35 34 32 32 34 37 37 37 37 37 36 35 34 33 34 35 33 31 30 28 28 26 25
49 48 48 51 47 45 40 40 38 40 39 36 39 39 36 37 35 34 35 42 35 31 30 31 31 31 32 32 31 32 32 32 31 33 34 32 33 33 33 33 34 34 32 31 29 28 28 27 26 27 26 26 24 26
47 46 47 46 41 38 39 41 40 43 39 38 38 40 35 32 33 34 38 33 29 29 31 30 30 32 30 29 30 31 31 31 30 30 31 32 30 29 28 29 28 25 25 25 25 24 24 24 23 23 23 23 24 25
46 46 42 39 33 33 31 43 33 37 32 34 38 33 31 32 35 41 31 30 29 31 32 32 32 32 30 31 31 29 30 30 28 27 26 26 25 25 24 23 24 24 21 21 24 24 22 22 22 21 23 22 22 22
44 34 31 32 33 28 35 31 38 36 35 33 32 28 28 30 36 33 26 27 28 31 31 31 32 31 31 28 26 25 28 29 26 26 27 25 22 22 22 20 20 21 22 24 23 22 22 20 19 20 19 18 19 18
32 29 31 29 34 32 30 30 31 32 28 30 29 28 29 34 29 27 24 26 26 25 27 30 29 28 27 26 26 25 27 27 24 21 23 26 24 23 22 22 20 20 22 19 18 18 18 19 18 17 16 16 16 15
26 28 29 29 29 29 30 27 27 28 29 28 27 30 31 30 26 22 23 24 24 23 23 24 26 26 24 24 23 22 22 26 26 20 21 23 23 22 22 21 20 17 19 18 16 15 15 15 15 14 14 15 14 14
25 27 31 34 32 32 30 31 32 31 28 26 28 29 29 25 22 22 25 25 24 24 25 25 25 24 23 22 23 24 24 23 23 22 23 23 21 21 18 15 13 13 16 16 14 13 12 12 12 13 13 15 15 13
29 29 26 29 30 32 29 29 28 26 27 29 30 24 23 21 18 22 23 26 26 27 25 25 24 24 22 22 24 24 25 24 22 24 23 22 22 20 19 18 17 15 15 15 14 13 13 12 11 11 11 10 10 13
28 30 32 24 30 29 27 27 27 27 29 28 27 24 21 21 21 23 24 26 28 26 24 22 23 24 23 23 21 21 20 18 18 15 16 16 18 16 18 17 17 17 16 15 15 15 15 13 12 11 11 11 11 12
27 31 30 29 26 25 26 29 27 28 29 28 27 24 21 19 21 24 23 23 22 20 20 21 21 21 19 20 19 18 17 15 13 12 11 10 11 15 16 16 15 15 15 13 13 13 14 13 12 12 12 11 11 9
32 32 30 30 26 26 27 29 30 30 28 25 26 23 19 17 19 20 20 21 21 21 21 19 17 18 16 15 14 14 14 15 14 14 12 12 14 14 15 14 15 14 13 12 11 10 10 9 9 9 9 8 8 7
29 26 27 25 26 28 30 27 27 28 26 25 21 22 20 21 15 16 17 20 19 17 16 17 16 15 16 16 17 17 9 14 15 14 13 11 11 12 12 13 12 13 12 11 11 10 9 9 8 8 7 7 6 4
29 29 29 28 27 26 27 26 26 24 24 21 19 20 18 17 11 15 20 20 17 16 15 16 17 17 17 15 16 15 14 17 15 15 14 13 10 9 9 10 11 10 9 8 8 8 8 8 8 7 5 3 4 3
MSLP
991.49 992.56 993.57 994.40 995.06 995.73 996.47 997.16 997.82 998.49 999.15 999.84 1000.75 1001.67 1002.47 1003.30 1004.03 1004.99 1003.64 1003.94 1003.97 1002.11 999.15 998.85 999.23 999.54 1000.04 1001.43 1002.62 1003.92 1004.94 1005.21 1005.68 1006.53 1007.06 1007.43 1007.79 1007.64 1007.58 1007.86 1008.78 1009.45 1010.15 1010.66 1010.80 1010.78 1009.60 1008.19 1008.28 1008.48 1008.75 1008.85 1009.05 1009.20
991.98 992.77 993.53 994.11 994.68 995.38 996.19 996.89 997.37 998.08 998.84 999.46 1000.07 1000.93 1001.36 1002.71 1003.71 1004.48 1003.59 1002.30 1002.87 1000.98 999.79 999.81 1000.27 1000.44 1000.49 1000.60 1001.40 1003.22 1003.15 1003.76 1004.56 1005.35 1006.48 1007.49 1008.35 1008.64 1008.40 1008.10 1007.44 1008.10 1008.36 1008.89 1009.33 1008.99 1008.56 1008.17 1008.40 1008.57 1008.93 1009.34 1009.58 1009.74
991.88 992.54 993.23 993.85 994.46 995.12 995.75 996.36 996.83 997.79 998.90 999.53 999.60 999.64 1001.21 1002.66 1003.19 1003.55 1002.47 1000.73 1000.88 1000.08 1000.18 1000.14 1001.09 1001.75 1001.41 1001.74 1001.74 1002.55 1002.93 1002.85 1003.72 1004.19 1006.36 1007.80 1008.62 1008.81 1008.77 1008.06 1007.41 1007.58 1008.01 1008.49 1008.75 1008.00 1008.00 1008.01 1008.34 1008.69 1009.37 1009.94 1010.22 1010.43
991.80 992.51 993.36 994.03 994.57 994.99 995.70 996.15 996.66 997.23 998.30 999.24 1000.31 1000.80 1001.57 1002.64 1003.12 1002.66 1002.26 999.21 997.21 998.62 1000.59 1001.77 1002.12 1002.21 1002.51 1002.22 1002.15 1002.36 1002.42 1002.96 1003.78 1004.82 1006.43 1007.90 1008.29 1007.99 1008.40 1007.80 1007.56 1007.70 1007.94 1008.27 1008.47 1008.43 1008.38 1008.62 1009.39 1010.04 1010.68 1011.03 1011.38 1011.71
991.96 992.85 993.37 993.69 994.18 994.69 995.29 995.85 996.59 997.10 997.30 997.57 998.68 1000.01 1001.09 1002.01 1002.90 1003.01 1003.09 1001.57 999.23 998.31 1000.58 1002.23 1002.92 1003.04 1002.64 1002.62 1002.74 1002.86 1003.04 1003.53 1004.29 1005.55 1006.79 1007.28 1007.54 1008.10 1008.68 1008.42 1007.99 1007.73 1007.87 1008.43 1008.89 1009.29 1009.62 1010.17 1011.08 1011.50 1012.06 1012.70 1013.15 1013.37
992.00 992.36 992.80 993.18 993.16 994.11 994.97 995.31 996.17 997.25 998.21 998.90 999.84 1000.74 1001.63 1002.17 1002.54 1003.47 1003.12 1000.70 1000.36 999.01 1000.84 1002.84 1003.88 1003.40 1002.88 1002.95 1003.18 1003.25 1003.54 1003.89 1004.31 1005.21 1006.64 1007.01 1007.53 1007.80 1008.70 1008.54 1007.94 1008.41 1008.84 1009.30 1009.63 1010.37 1010.71 1011.56 1012.45 1013.19 1013.88 1014.49 1015.04 1015.42
991.47 991.80 992.23 992.70 993.31 993.86 994.58 995.23 996.17 997.00 997.85 998.70 999.86 1000.74 1001.42 1002.18 1003.01 1002.98 1002.94 1002.50 1001.68 1000.64 1001.51 1003.77 1004.39 1004.56 1003.86 1003.91 1004.19 1004.25 1004.12 1004.25 1004.54 1005.73 1007.14 1007.63 1008.13 1008.28 1009.13 1008.72 1008.78 1009.55 1009.98 1010.30 1010.99 1011.18 1011.79 1012.25 1013.51 1014.39 1015.53 1016.21 1016.83 1017.32
991.98 992.20 992.45 992.98 993.58 994.19 994.85 995.55 996.73 997.62 998.54 999.42 1000.16 1000.91 1001.81 1002.82 1003.51 1003.29 1002.78 1002.34 1002.31 1001.57 1002.32 1004.09 1005.20 1005.43 1005.05 1005.20 1005.80 1005.65 1005.32 1005.65 1006.51 1007.39 1007.92 1008.22 1009.01 1009.06 1009.27 1009.50 1009.92 1010.57 1010.77 1011.53 1011.88 1012.22 1012.82 1013.89 1014.99 1016.02 1016.60 1017.13 1017.76 1018.32
992.94 992.92 993.12 993.21 993.71 994.52 995.44 996.12 996.75 997.54 998.52 999.45 1000.35 1001.51 1002.71 1002.79 1003.36 1003.57 1003.20 1003.13 1002.89 1003.34 1004.63 1004.99 1005.51 1005.81 1005.74 1006.49 1006.80 1006.94 1006.40 1007.24 1008.01 1008.28 1008.26 1008.81 1010.06 1010.12 1010.04 1010.46 1010.90 1011.57 1011.63 1012.28 1012.75 1013.54 1014.59 1015.46 1016.23 1016.92 1017.50 1018.16 1018.62 1019.22
994.38 994.19 994.17 994.33 994.60 995.09 995.45 996.23 997.14 998.06 999.03 999.80 1000.47 1000.48 1002.67 1003.95 1004.05 1004.12 1004.03 1003.49 1004.19 1005.01 1005.89 1006.20 1006.06 1006.45 1006.43 1007.07 1007.77 1007.97 1007.95 1008.18 1008.80 1009.55 1009.44 1009.70 1010.74 1011.42 1011.81 1012.02 1012.25 1012.40 1012.54 1013.01 1013.93 1015.23 1016.06 1016.67 1017.31 1017.88 1018.25 1019.04 1019.67 1020.17
995.85 995.80 995.80 995.56 996.00 996.40 996.84 997.25 997.81 998.49 999.24 998.88 1000.33 1002.67 1003.82 1004.12 1004.19 1004.49 1004.95 1004.98 1005.88 1006.90 1007.01 1007.12 1006.94 1006.62 1007.05 1007.16 1008.13 1008.85 1008.98 1009.14 1009.47 1010.02 1010.24 1010.93 1011.53 1012.29 1012.85 1013.21 1013.52 1013.44 1013.64 1014.16 1014.85 1016.03 1016.83 1017.44 1018.08 1018.94 1019.69 1020.37 1020.88 1021.43
997.28 996.82 997.18 997.41 997.56 997.31 997.50 997.86 998.13 998.70 999.44 999.63 1000.86 1002.94 1003.99 1004.50 1005.33 1006.14 1006.92 1007.14 1007.23 1007.87 1008.20 1007.99 1007.54 1007.49 1007.78 1007.39 1008.36 1009.40 1009.69 1009.96 1010.06 1010.69 1011.15 1011.60 1012.45 1013.14 1013.86 1014.42 1014.53 1014.72 1015.07 1015.57 1016.26 1017.11 1017.89 1018.64 1019.40 1020.15 1020.91 1021.53 1022.00 1022.46
999.20 998.89 998.35 998.58 998.92 999.06 999.31 999.25 999.28 999.63 999.72 1000.28 1001.98 1004.32 1005.30 1006.77 1007.34 1008.18 1008.69 1008.73 1009.43 1009.40 1009.33 1008.64 1008.35 1008.27 1008.38 1008.31 1009.11 1009.60 1010.17 1010.43 1010.53 1011.43 1011.61 1012.43 1013.41 1014.27 1014.70 1014.96 1015.35 1015.85 1016.29 1016.99 1017.66 1018.46 1019.36 1020.12 1020.79 1021.35 1022.03 1022.51 1022.49 1022.89
1000.52 1000.30 1000.43 1000.42 1000.31 1000.93 1000.95 1000.56 1000.10 1000.22 1000.62 1002.87 1004.98 1007.05 1007.86 1008.64 1009.67 1009.99 1010.08 1010.41 1010.61 1010.04 1009.34 1008.97 1008.75 1008.86 1009.18 1009.45 1009.90 1010.35 1011.42 1011.22 1011.63 1012.14 1012.34 1013.46 1014.35 1014.98 1015.20 1015.64 1016.17 1016.86 1017.49 1018.04 1018.96 1019.86 1020.65 1021.30 1021.95 1022.49 1022.92 1023.30 1023.47 1023.59
1001.44 1001.42 1001.13 1001.64 1002.07 1001.63 1001.50 1001.27 1000.96 1001.57 1003.95 1006.19 1007.51 1009.09 1010.03 1010.64 1010.97 1011.02 1011.10 1010.98 1010.79 1010.08 1009.42 1008.90 1008.92 1009.17 1009.86 1010.29 1010.74 1011.39 1011.96 1011.94 1012.11 1012.64 1013.59 1014.38 1015.19 1015.63 1015.94 1016.36 1017.06 1017.76 1018.47 1019.10 1019.91 1020.68 1021.38 1022.00 1022.51 1023.03 1023.41 1023.58 1023.83 1024.09
1001.90 1001.84 1003.20 1003.22 1002.56 1002.16 1001.92 1001.87 1003.28 1005.08 1007.57 1009.01 1010.11 1010.69 1010.89 1011.09 1011.33 1011.22 1011.27 1011.12 1010.89 1010.39 1009.98 1009.80 1010.05 1010.38 1010.99 1011.19 1011.55 1011.77 1012.30 1012.63 1013.44 1014.16 1014.77 1015.36 1015.97 1016.35 1016.69 1017.16 1017.79 1018.16 1018.74 1019.53 1020.48 1021.23 1021.88 1022.36 1022.68 1023.13 1023.57 1023.77 1024.01 1024.25
1002.58 1004.08 1004.58 1003.88 1003.52 1003.45 1003.36 1004.46 1006.25 1008.17 1009.75 1010.71 1011.73 1011.83 1011.84 1012.25 1012.44 1012.37 1012.14 1011.92 1011.56 1011.13 1011.33 1011.15 1011.33 1012.05 1012.19 1012.24 1012.84 1013.38 1014.08 1014.66 1015.04 1015.44 1015.85 1016.17 1016.62 1017.00 1017.32 1017.86 1018.35 1018.81 1019.39 1020.11 1020.86 1021.56 1022.21 1022.67 1022.95 1023.11 1023.32 1023.70 1023.87 1024.21
1004.76 1004.96 1004.64 1004.18 1003.83 1003.97 1004.81 1006.29 1008.16 1009.84 1011.45 1012.34 1012.63 1012.92 1012.85 1013.03 1013.04 1012.99 1012.74 1012.22 1011.80 1011.93 1012.26 1012.76 1012.91 1013.12 1013.62 1014.09 1014.86 1015.47 1015.72 1015.92 1016.08 1016.26 1016.70 1017.10 1017.42 1017.72 1017.97 1018.45 1018.92 1019.45 1020.02 1020.67 1021.41 1021.99 1022.41 1022.68 1022.82 1023.31 1023.72 1024.05 1024.00 1024.26
1006.09 1005.51 1004.90 1004.51 1004.22 1005.06 1006.92 1008.55 1009.25 1011.21 1012.82 1013.22 1013.59 1013.62 1013.69 1013.76 1013.74 1013.74 1013.27 1012.58 1012.21 1012.27 1012.85 1013.53 1014.49 1015.31 1016.03 1016.77 1017.04 1016.84 1016.85 1016.93 1017.25 1017.51 1017.64 1017.92 1018.18 1018.46 1018.70 1019.10 1019.71 1020.29 1020.85 1021.23 1021.59 1021.96 1022.84 1023.27 1023.78 1024.12 1024.49 1024.57 1024.74 1024.94
1006.07 1005.89 1005.63 1005.19 1004.60 1006.35 1008.70 1010.14 1010.34 1011.64 1013.00 1013.89 1013.99 1013.98 1014.05 1014.32 1014.38 1014.14 1013.67 1013.11 1012.65 1013.03 1014.54 1016.09 1017.40 1018.11 1018.25 1018.59 1018.65 1018.37 1018.08 1017.90 1018.06 1018.32 1018.62 1018.83 1018.99 1019.28 1019.58 1019.83 1020.26 1020.76 1021.43 1022.04 1022.57 1022.81 1023.24 1023.93 1024.57 1024.96 1025.32 1025.38 1025.49 1025.73
1006.25 1006.70 1006.14 1005.81 1006.74 1008.43 1010.50 1011.14 1011.80 1012.46 1013.07 1013.70 1013.97 1014.03 1014.61 1014.90 1014.86 1014.74 1014.52 1014.36 1014.92 1016.62 1017.72 1018.89 1019.22 1019.61 1019.85 1019.92 1019.87 1019.54 1019.33 1019.08 1019.14 1019.00 1019.06 1019.53 1020.01 1020.31 1020.68 1021.03 1021.43 1021.76 1022.39 1022.92 1023.57 1024.29 1024.66 1025.14 1025.63 1025.87 1025.95 1026.00 1026.25 1026.13
1007.86 1007.50 1007.51 1007.92 1009.21 1010.87 1012.11 1012.77 1012.60 1012.88 1013.39 1013.87 1014.03 1014.26 1014.85 1015.30 1015.30 1015.41 1015.57 1016.47 1018.46 1019.78 1020.01 1020.38 1020.65 1020.62 1020.87 1021.03 1021.01 1020.81 1020.71 1020.59 1020.55 1020.41 1020.48 1020.86 1021.34 1021.90 1022.31 1022.58 1023.01 1023.67 1024.24 1024.69 1025.06 1025.47 1025.81 1026.36 1026.62 1026.65 1026.55 1026.64 1026.46 1026.26
1008.49 1008.64 1009.53 1010.47 1011.58 1012.82 1014.39 1013.70 1013.78 1013.79 1014.01 1014.30 1014.51 1014.99 1015.70 1016.06 1016.16 1015.90 1017.29 1019.29 1020.79 1021.62 1021.53 1021.47 1021.66 1021.83 1021.98 1022.22 1022.25 1022.26 1022.08 1021.92 1022.02 1022.27 1022.58 1022.91 1023.44 1023.85 1024.21 1024.77 1024.87 1025.25 1025.77 1026.15 1026.28 1026.44 1026.75 1027.03 1027.11 1027.17 1026.92 1026.93 1026.81 1026.63
1009.85 1011.33 1012.34 1012.95 1013.58 1014.63 1014.90 1014.94 1014.55 1014.57 1014.86 1014.98 1015.27 1016.12 1016.83 1017.06 1016.90 1017.34 1019.13 1020.97 1022.39 1022.66 1022.44 1022.27 1022.14 1022.23 1022.71 1023.17 1023.47 1023.67 1023.48 1023.56 1023.63 1023.80 1024.14 1024.35 1024.83 1025.29 1025.73 1026.29 1026.60 1026.93 1027.24 1027.02 1027.08 1027.23 1027.31 1027.48 1027.62 1027.47 1027.36 1027.36 1027.14 1027.16
1011.83 1014.74 1014.68 1014.94 1015.11 1015.18 1015.47 1015.73 1015.60 1015.56 1015.94 1016.20 1016.41 1017.06 1017.54 1017.66 1017.92 1019.01 1020.59 1022.32 1023.36 1023.84 1023.87 1023.49 1023.55 1023.70 1023.77 1024.24 1024.70 1025.07 1025.11 1024.94 1025.06 1025.42 1025.70 1025.53 1025.81 1026.16 1026.54 1027.02 1027.62 1028.07 1028.07 1028.07 1028.04 1027.99 1027.97 1028.03 1028.04 1028.01 1027.94 1027.72 1027.59 1027.55
1014.66 1016.35 1016.36 1016.42 1016.52 1016.25 1016.34 1016.45 1016.63 1016.75 1016.79 1017.05 1017.66 1018.10 1018.29 1018.46 1019.23 1020.93 1022.71 1023.93 1024.69 1025.24 1025.37 1025.05 1024.68 1024.85 1025.44 1025.77 1025.96 1026.28 1026.41 1026.07 1026.01 1026.42 1026.96 1027.10 1027.03 1026.87 1027.14 1027.54 1027.91 1028.56 1029.03 1028.97 1028.99 1028.87 1028.66 1028.59 1028.54 1028.43 1028.24 1028.00 1027.82 1027.78
1016.58 1017.28 1017.70 1017.70 1017.52 1017.32 1017.36 1017.50 1017.44 1017.48 1017.73 1018.11 1018.60 1018.76 1018.98 1019.60 1021.26 1023.27 1024.65 1025.47 1025.78 1026.33 1026.54 1026.50 1026.29 1026.24 1026.45 1026.83 1027.15 1027.35 1027.49 1027.44 1027.25 1027.54 1027.94 1028.21 1028.38 1028.50 1028.69 1028.99 1029.43 1030.12 1029.99 1029.79 1029.76 1029.61 1029.44 1029.20 1029.00 1028.79 1028.52 1028.21 1028.08 1028.09
1018.00 1018.40 1018.23 1018.38 1018.10 1018.08 1018.05 1018.22 1018.50 1018.96 1019.37 1019.68 1019.61 1020.28 1021.14 1022.40 1024.09 1025.34 1026.02 1026.50 1026.68 1026.93 1027.20 1027.41 1027.55 1027.62 1027.74 1027.92 1027.96 1027.88 1027.76 1028.03 1028.27 1028.21 1028.34 1028.49 1028.70 1029.13 1029.44 1029.69 1030.15 1030.29 1030.22 1030.10 1030.10 1029.86 1029.72 1029.55 1029.45 1029.15 1028.86 1028.70 1028.61 1028.44
1018.71 1019.00 1018.77 1018.90 1018.81 1019.10 1019.53 1019.71 1020.03 1020.75 1021.10 1020.94 1021.07 1022.34 1024.01 1025.66 1026.80 1026.88 1027.24 1027.25 1027.15 1027.12 1027.44 1027.77 1028.01 1028.16 1028.37 1028.67 1029.12 1029.33 1029.46 1029.32 1028.82 1028.71 1028.75 1028.90 1029.02 1029.48 1029.86 1029.97 1029.92 1029.98 1029.96 1030.03 1029.86 1029.76 1029.50 1029.46 1029.32 1029.19 1029.05 1028.91 1028.73 1028.48
1019.62 1019.54 1019.10 1019.49 1019.84 1020.26 1020.96 1021.22 1021.45 1022.09 1022.38 1022.58 1023.17 1024.44 1025.89 1027.22 1028.25 1028.40 1028.28 1028.26 1028.28 1028.51 1028.81 1028.94 1029.01 1029.00 1029.17 1029.09 1029.39 1029.78 1030.30 1030.61 1030.77 1030.66 1030.43 1030.43 1030.54 1030.49 1030.36 1030.20 1030.22 1030.25 1030.23 1030.16 1030.01 1029.75 1029.56 1029.29 1029.23 1028.82 1028.53 1028.51 1028.43 1028.51
1020.29 1019.89 1019.81 1019.90 1020.70 1021.59 1021.92 1022.08 1022.23 1022.52 1022.96 1023.60 1024.10 1024.67 1026.20 1027.89 1029.10 1029.70 1029.78 1029.53 1029.49 1029.46 1029.38 1029.61 1030.03 1030.28 1030.42 1030.57 1030.63 1030.64 1030.71 1031.06 1031.36 1031.41 1031.63 1031.50 1031.17 1030.90 1030.61 1030.50 1030.40 1030.32 1030.25 1030.14 1029.97 1029.85 1029.59 1029.35 1029.17 1028.96 1028.74 1028.62 1028.67 1028.73
1020.85 1021.14 1020.94 1020.74 1021.23 1022.06 1022.14 1022.21 1022.21 1022.27 1023.00 1023.78 1024.96 1025.79 1026.68 1027.12 1028.63 1030.27 1031.12 1030.47 1030.29 1030.43 1030.77 1030.70 1030.74 1031.09 1031.48 1031.54 1031.50 1031.44 1031.81 1031.63 1031.48 1031.64 1031.72 1031.74 1031.59 1031.46 1031.23 1030.96 1030.80 1030.44 1030.13 1030.09 1029.96 1029.72 1029.48 1029.27 1029.10 1028.96 1028.91 1028.81 1028.91 1029.15
1021.33 1021.54 1021.68 1021.61 1021.68 1021.93 1022.49 1022.59 1022.49 1023.05 1023.77 1024.70 1025.87 1026.43 1027.31 1028.07 1029.55 1030.96 1031.71 1031.83 1031.84 1031.81 1031.85 1031.87 1031.85 1031.82 1031.84 1031.92 1031.88 1031.90 1031.74 1031.47 1031.66 1031.64 1031.51 1031.56 1031.69 1031.66 1031.70 1031.32 1030.97 1030.73 1030.50 1030.33 1030.13 1029.84 1029.46 1029.17 1028.99 1028.94 1029.10 1029.26 1029.29 1029.42
Wind_Speed
24 22 20 19 19 18 17 16 16 18 20 24 22 22 22 20 19 15 12 12 6 4 11 18 16 15 9 12 8 9 7 3 3 2 3 3 2 4 2 6 7 6 6 3 2 2 6 5 5 3 4 4 7 7
22 21 21 19 19 18 17 16 18 20 20 21 21 23 19 18 21 17 8 13 14 12 6 11 12 12 5 6 6 9 5 10 6 4 1 4 2 3 3 2 10 3 5 3 8 4 5 3 4 3 5 4 4 5
21 21 19 19 17 16 17 19 19 20 22 23 22 18 18 18 20 20 11 8 6 2 5 5 7 7 11 7 5 4 4 8 6 3 4 3 4 4 4 4 3 4 4 1 2 4 5 3 1 0 5 8 9 9
16 16 15 16 14 13 14 14 16 18 20 26 28 22 19 19 20 20 12 12 9 7 6 5 1 4 5 3 4 3 1 6 7 5 3 4 4 5 3 2 3 1 8 7 6 8 5 7 12 11 8 9 11 11
10 12 10 12 13 14 15 17 21 17 16 15 18 18 19 19 19 11 8 11 9 4 5 5 6 4 0 3 5 4 6 7 5 3 3 3 2 4 2 1 1 6 4 3 3 9 3 10 11 9 12 11 11 11
16 16 18 20 20 22 22 20 24 26 24 22 21 22 21 20 17 4 6 4 6 3 5 4 1 2 5 8 8 8 6 5 4 4 2 3 2 2 4 3 6 9 7 6 4 6 5 12 12 13 13 13 14 14
16 14 14 16 19 20 20 19 22 20 20 20 20 20 19 17 9 3 4 4 12 6 4 4 3 1 5 8 4 4 2 2 2 3 2 3 3 2 3 3 12 7 5 6 5 4 10 7 8 13 14 13 14 13
19 17 15 16 16 17 18 19 22 23 23 22 20 19 17 14 9 2 3 6 7 2 4 4 0 3 2 2 3 4 2 3 5 4 1 3 3 2 2 9 9 6 4 7 6 9 12 13 14 12 11 11 12 12
24 22 20 19 20 20 23 23 22 23 24 24 23 24 9 5 3 2 7 10 4 6 2 2 5 4 4 3 2 2 1 3 1 2 2 4 1 3 6 8 7 5 3 8 8 14 13 12 11 11 11 11 11 8
25 26 25 24 23 22 22 24 26 27 29 29 18 5 4 2 0 3 1 3 5 5 3 1 2 3 2 3 2 2 2 3 3 2 2 1 3 5 5 6 6 4 6 8 13 11 10 10 10 10 11 12 11 9
26 24 27 29 26 19 15 16 21 27 23 4 5 4 3 3 1 4 3 3 4 1 1 1 3 3 3 3 3 2 2 0 4 3 4 3 3 6 6 8 4 5 10 8 12 11 10 10 9 11 10 10 9 9
26 27 24 28 26 25 23 11 6 6 3 6 11 6 2 2 4 6 4 2 2 1 1 1 2 3 2 1 4 2 3 2 3 4 3 4 4 10 9 8 7 9 12 13 14 13 12 12 11 10 9 7 6 7
26 27 29 27 26 25 21 13 11 12 5 5 7 6 4 4 5 1 4 1 1 2 2 2 2 2 2 4 3 3 4 3 5 2 3 3 8 8 9 9 10 11 12 13 13 13 13 13 11 9 8 6 4 8
22 24 27 25 22 19 17 10 11 5 7 6 4 6 5 4 3 1 2 1 2 3 1 2 2 3 1 4 1 4 1 2 3 4 3 5 9 8 7 9 12 12 9 12 12 11 10 11 9 9 8 6 5 6
16 20 21 26 15 15 18 20 20 9 7 7 6 5 4 2 1 1 3 2 2 2 2 2 3 4 3 4 2 4 2 3 4 1 2 5 9 7 9 10 12 8 6 9 9 9 10 9 7 8 5 5 6 4
5 11 15 21 19 14 15 16 10 5 5 4 6 3 2 2 4 4 4 3 5 3 2 2 3 4 4 2 1 1 3 1 3 2 3 7 8 7 8 11 9 7 7 10 9 9 8 7 6 8 6 4 4 5
11 7 18 14 11 11 12 7 4 7 5 5 4 3 3 4 4 2 2 3 3 2 3 3 4 3 0 1 3 4 4 3 2 3 3 6 9 7 9 9 7 7 9 9 9 8 7 6 4 3 4 6 3 5
7 9 16 13 6 7 5 6 5 6 8 5 4 5 4 4 3 4 4 4 3 2 2 3 1 3 4 4 4 3 2 2 3 4 5 6 7 5 8 8 9 8 9 8 7 7 6 4 4 5 5 5 4 6
9 12 17 14 6 5 5 6 5 6 6 2 2 2 2 2 4 3 4 4 3 2 4 3 5 5 4 4 4 4 2 2 2 3 4 5 7 6 6 9 10 9 7 7 6 5 6 8 6 5 5 5 4 5
5 18 18 15 7 5 7 4 3 5 4 3 2 4 3 3 3 3 5 6 4 4 6 6 5 4 4 4 4 4 5 2 3 4 3 3 4 8 7 7 5 7 7 8 6 4 5 6 6 6 5 5 5 5
8 9 11 8 6 9 6 4 5 3 4 3 0 2 4 3 4 4 5 6 7 6 5 5 4 5 7 6 6 5 6 6 4 2 2 4 5 6 6 6 5 4 6 6 6 6 7 6 5 5 4 4 4 4
6 11 4 8 6 6 6 8 3 2 3 3 3 3 3 3 3 4 2 7 5 5 4 5 7 7 7 10 9 10 8 9 11 9 11 9 7 8 7 6 8 8 8 7 6 5 5 5 4 4 4 4 5 4
5 6 6 6 7 6 4 4 4 4 3 2 1 4 3 3 4 3 5 5 4 7 7 4 6 8 8 9 9 12 11 9 8 8 8 8 8 7 8 8 8 7 6 5 4 4 4 3 5 4 4 5 5 5
6 7 7 6 7 5 2 4 2 3 4 3 3 4 3 3 4 4 5 4 5 6 7 9 7 5 7 10 9 9 8 8 8 8 7 7 7 8 7 7 6 6 5 4 5 4 4 4 5 5 5 6 6 5
8 9 5 7 4 3 4 3 4 4 4 4 3 3 3 3 3 3 4 3 6 6 7 6 7 8 6 7 7 8 9 7 7 8 8 4 5 5 6 6 6 6 5 5 5 5 5 4 5 6 6 6 7 7
9 9 6 6 4 4 3 3 3 3 2 3 3 2 1 1 3 5 4 4 6 6 6 8 7 6 7 8 7 7 7 6 6 7 7 7 7 5 5 5 3 6 7 6 6 6 7 6 6 7 7 8 7 7
7 6 4 2 2 0 3 3 1 3 5 5 3 3 2 1 5 4 4 5 4 5 6 6 7 7 7 6 6 6 6 7 7 6 5 6 7 7 7 6 6 5 6 6 6 7 7 7 7 7 7 7 7 6
5 6 5 5 4 4 3 3 4 5 4 4 3 4 5 6 5 4 4 4 4 4 5 6 6 6 6 6 6 6 6 3 4 4 5 5 6 6 6 5 3 1 3 4 4 4 6 7 8 9 8 8 7 6
5 4 3 4 4 5 5 5 3 3 5 4 5 4 4 4 5 4 4 3 4 5 5 5 4 3 4 6 6 6 7 7 7 7 6 4 3 5 6 5 5 5 5 5 7 6 7 5 6 7 8 6 6 7
5 4 2 4 4 4 4 6 5 4 4 4 4 5 5 4 5 6 6 6 6 5 5 5 5 6 6 5 4 5 6 7 6 6 5 5 6 6 5 5 5 6 5 6 7 7 8 6 7 7 6 5 5 5
3 3 2 3 4 3 3 2 4 4 3 4 7 7 6 5 4 6 7 5 5 6 4 5 6 7 6 6 6 6 3 6 4 5 4 5 5 6 6 5 5 6 5 6 6 7 8 7 7 8 8 8 7 6
3 4 4 3 4 3 3 3 2 0 4 3 3 3 4 4 4 4 6 7 6 6 6 7 6 5 5 5 5 4 1 4 5 5 7 6 6 8 8 7 6 7 7 6 7 7 8 9 7 7 8 9 8 6
1 2 2 2 1 2 3 4 1 3 4 3 3 3 4 5 5 3 3 5 6 6 6 5 5 4 4 3 5 4 4 5 6 6 6 5 4 5 5 6 7 8 9 8 8 9 10 11 9 8 7 7 7 6
Wind_Direction
167 167 173 182 185 191 189 192 193 193 190 184 179 176 189 215 221 213 234 237 286 280 179 186 192 181 165 171 154 134 147 163 138 139 159 133 111 208 157 182 163 168 161 182 139 147 267 125 128 120 56 1 5 349
159 167 176 180 185 191 192 197 200 183 184 187 185 190 191 203 189 188 246 247 234 218 85 67 59 34 9 153 121 166 178 156 163 157 90 73 71 24 38 199 202 181 191 177 173 203 151 181 36 12 19 348 334 319
167 172 178 184 189 194 196 189 181 174 185 192 190 188 184 181 188 187 232 253 287 155 87 102 77 49 40 37 51 140 233 167 159 90 128 117 143 171 146 215 152 209 96 177 49 253 202 185 324 88 53 24 0 342
173 171 165 171 176 185 179 181 183 186 182 174 185 187 177 183 182 201 225 247 289 78 106 92 168 45 354 14 93 41 288 47 102 107 102 131 133 222 185 272 125 351 147 199 212 260 310 73 54 40 23 18 22 4
178 169 182 190 221 214 193 200 187 178 163 167 169 171 179 174 182 183 237 271 307 342 105 110 106 15 357 177 151 132 132 133 133 111 104 143 103 99 40 358 202 187 203 168 216 77 30 44 58 39 58 49 38 34
198 196 211 222 175 183 189 171 163 172 169 164 165 168 169 163 164 128 242 201 323 52 102 115 68 55 135 162 162 159 169 187 187 104 116 83 53 148 144 181 96 85 73 41 49 44 48 89 73 73 71 59 60 60
109 121 124 130 136 140 145 144 143 148 149 156 157 155 150 157 163 291 329 342 328 313 99 110 116 76 90 75 42 97 169 49 115 95 90 141 125 115 145 193 117 103 84 86 41 323 96 87 101 88 87 88 81 78
87 98 112 127 142 143 148 154 149 153 153 147 139 136 137 130 112 239 22 344 339 53 66 100 284 121 264 106 102 326 95 112 19 85 62 87 63 355 196 112 110 89 133 92 78 69 96 89 87 90 96 96 93 89
55 57 76 90 107 126 137 142 142 137 134 131 130 125 129 170 174 30 327 300 45 68 27 103 156 145 107 49 58 98 123 87 103 95 123 112 147 172 87 127 112 85 126 125 107 85 88 99 104 103 102 102 101 106
53 54 62 70 83 93 111 122 130 134 139 140 141 135 112 83 100 305 205 50 28 44 320 320 355 130 66 154 85 103 352 135 125 90 125 158 100 95 88 84 101 88 134 133 110 112 116 118 120 123 98 80 81 72
52 48 59 58 60 62 80 108 121 132 141 167 73 67 94 141 97 33 55 34 102 161 5 260 186 140 347 126 123 346 129 109 146 125 169 155 193 166 141 99 74 69 86 92 111 124 136 128 118 96 87 75 64 68
43 43 59 59 59 51 48 64 92 70 52 84 104 113 97 89 58 67 20 4 350 65 10 284 66 82 60 262 106 177 99 142 140 124 144 189 104 131 134 128 121 111 113 113 109 97 94 97 91 84 84 80 78 90
49 48 50 43 48 50 45 32 69 106 184 66 58 63 31 345 80 148 184 84 176 209 242 215 97 105 105 66 77 103 119 115 122 115 200 60 130 135 142 137 116 109 105 107 104 93 87 82 76 84 86 64 62 75
46 47 49 39 39 52 46 27 58 95 61 64 61 72 31 73 67 20 333 91 209 243 307 117 65 81 116 64 69 101 52 156 152 201 193 143 151 146 143 130 125 110 88 90 96 101 98 99 91 86 85 85 81 62
43 44 44 22 31 48 49 51 40 43 52 58 34 58 68 93 48 222 230 174 307 260 313 80 54 66 50 93 53 121 134 179 214 189 87 129 138 141 135 128 109 108 106 110 114 111 115 116 110 102 81 78 75 67
23 53 19 356 14 33 36 46 36 54 59 59 43 79 359 79 27 25 4 22 358 347 319 31 72 64 46 56 148 132 183 152 71 65 115 130 126 124 144 119 137 139 113 108 115 118 121 122 119 114 110 95 110 82
56 43 341 349 360 44 53 72 53 56 56 47 38 0 43 81 51 18 350 337 300 33 45 360 54 53 282 68 67 18 32 29 89 85 101 130 134 138 121 102 104 109 114 120 123 128 123 117 136 117 89 61 55 113
44 17 1 358 348 48 39 54 58 63 59 26 50 15 30 26 16 21 349 342 29 52 26 59 38 49 33 34 52 33 57 52 69 87 112 126 125 118 122 128 124 118 100 100 120 131 135 174 135 80 60 36 20 40
40 22 5 6 28 80 66 42 44 79 56 38 24 16 32 21 62 16 331 324 56 113 116 57 36 29 46 34 2 18 29 51 74 39 76 105 116 123 133 106 105 112 132 149 153 108 85 66 65 53 40 29 15 18
111 27 358 8 45 79 71 43 45 71 63 74 33 33 56 38 342 332 357 359 17 59 48 46 37 23 20 23 5 344 3 49 120 113 79 73 128 122 123 121 122 113 96 92 67 57 122 102 65 49 35 20 15 353
23 352 347 24 52 56 65 40 58 70 114 78 257 86 60 31 28 17 16 30 47 27 65 44 38 71 48 37 19 13 26 29 19 349 119 117 71 80 81 69 74 88 99 95 100 80 58 55 41 17 10 18 15 312
4 332 45 27 65 54 58 5 54 82 64 73 41 46 57 39 26 19 15 51 61 25 19 38 22 32 44 35 29 27 42 48 38 42 51 73 82 70 55 66 73 67 58 52 58 58 65 42 40 1 347 8 320 331
337 24 45 33 72 51 44 350 61 2 74 72 43 54 40 44 358 331 84 62 73 22 12 39 65 61 63 56 54 44 37 56 63 62 62 65 66 64 66 50 42 68 78 61 48 49 50 352 46 342 341 355 329 342
43 48 36 40 40 74 55 31 15 58 39 17 62 74 43 10 322 66 67 65 51 17 21 21 19 100 73 57 48 30 36 51 59 57 58 76 78 71 71 72 68 58 30 34 44 23 29 20 353 349 5 337 331 345
64 18 12 51 22 60 66 52 24 52 67 29 63 73 49 310 60 64 72 85 57 35 11 23 54 34 51 76 66 51 34 49 63 60 30 56 112 114 102 92 83 62 31 23 19 4 3 355 356 355 341 325 335 337
67 26 31 25 32 40 37 72 55 62 69 74 60 65 288 47 74 67 66 45 57 35 23 12 16 68 59 37 47 38 20 359 89 77 54 37 31 37 46 45 70 79 23 20 2 348 344 354 342 333 324 325 324 333
58 49 53 354 328 118 101 78 30 46 44 41 29 353 303 103 81 84 108 28 65 55 42 26 32 47 58 64 61 52 46 41 49 71 77 67 59 49 45 36 28 19 336 9 356 354 337 334 331 329 317 322 344 352
54 30 46 7 44 3 63 51 37 37 49 354 286 37 23 25 60 46 50 60 73 86 77 62 56 50 50 41 35 28 32 73 150 154 129 104 93 82 60 38 86 295 323 16 341 317 334 330 328 319 330 339 331 328
50 1 355 29 46 51 33 24 59 61 358 342 352 65 77 58 18 35 36 16 15 51 58 67 72 105 106 92 61 41 34 18 20 26 21 18 33 53 23 7 356 356 354 336 331 332 326 308 306 307 302 303 295 297
36 335 38 49 35 52 60 7 66 74 40 49 103 119 96 89 41 24 35 37 46 59 55 45 42 44 27 27 57 84 68 49 31 18 2 4 351 344 332 337 355 338 336 333 323 324 315 335 328 308 307 299 315 350
349 315 56 49 80 53 26 11 127 111 84 55 35 66 102 123 104 53 24 11 45 23 54 79 63 39 41 34 21 7 43 59 31 33 20 317 314 316 328 343 330 329 317 307 319 321 316 313 313 315 313 322 323 319
35 26 344 10 80 74 27 14 6 337 128 117 100 125 165 164 88 72 5 352 57 63 36 35 38 51 34 9 8 27 112 313 328 8 342 335 323 331 326 334 322 305 309 313 308 303 306 311 308 308 306 317 338 342
109 56 37 26 75 83 60 317 73 94 64 69 66 36 44 33 66 91 93 43 35 29 24 17 11 1 12 341 349 317 293 345 356 311 302 305 305 296 299 299 321 326 327 321 315 310 305 305 307 315 323 309 301 336